Powrót do katalogu

STARLINK-1559

AktywnyŁącznośćVLEO
NORAD 46077·PAYLOAD·🇺🇸 United States

Wystrzelony Aug 7, 2020 z Cape Canaveral Space Force Station

Loading…

Następne Przeloty (najbliższe 24 godziny)

TLE

ŚwieżeSource: CelesTrak SupGP

Epoka: Sep 15, 2026, 02:26 UTC

1 46077C 20055BC  26258.10187500  .00029466  00000+0  56271-3 0  2589
2 46077  53.0178 259.8425 0003214  31.0744  16.1426 15.47504213    17

Śledź STARLINK-1559 w czasie rzeczywistym z AllMySat

Download on the App Store